STARLINK-1068

Last updated on Thu Dec 12 2019 00:02:04 GMT+0000 (Coordinated Universal Time)

1 44772U 19074BM 19345.58335648 .00047507 00000-0 34040-3 0 9996 2 44772 53.0092 21.5320 0002664 352.0903 51.9576 15.73233660 4731

Satellite not in orbit